User: anonymous   Login
Location: Caltech
(34.1382°N, 118.1253°W)
Time: 12:35:12
(UTC-08:00)
Language:

Cosmos 1408 Rocket - Orbit

View from above orbital plane
View from above orbital plane
View from above satellite
View from above satellite

Ground track
Ground track

The orbit data is extracted from the following two-line orbital elements,

1 13553U 82092B   16039.93871259 +.00000258 +00000-0 +27986-4 0  9992
2 13553 082.5716 334.5263 0020118 235.7561 199.0363 14.84020031782646
Epoch (UTC): 08 February 2016 22:31:44
Eccentricity: 0.0020118
inclination: 82.5716°
perigee height: 602 km
apogee height: 631 km
right ascension of ascending node: 334.5263°
argument of perigee: 235.7561°
revolutions per day: 14.84020031
mean anomaly at epoch: 199.0363°
orbit number at epoch: 78264

The dashed part of the orbit path shows where the satellite is in the earth's shadow,  

DLR